SCP
0 0 0 0 0 0 0 0 0 0 0 0 0 0 0 0 0 0 0 0 0 0 0 0 0 0 0 0 0 0 0 0 0 0 0 0 0 0 0 0 0 0 0 0 0 0 0 0 0
0 0 0 0 0 0 0 0 0 0 0 0 0 0 0 0 0 0 0 0 0 0 0 0 0 0 0 0 0 0 0 0 0 0 0 0 0 0 0 0 0 0 0 0 0 0 0 0 0
0 0 0 0 0 0 -0 0 0 0 0 0 0 0 0 0 0 0 0 0 0 0 0 0 0 0 0 0 0 0 0 0 0 0 0 0 0 0 0 0 0 0 0 0 0 0 0 0 0
0 0 0 0 0 -0 -0 0 0 0 0 0 0 0 0 0 0 0 0 0 0 0 0 0 0 0 0 0 0 0 0 0 0 0 0 0 0 0 0 0 0 0 0 0 0 0 0 0 0
0 0 0 0 0 -0 0 0 0 0 0 0 0 0 0 0 0 0 0 0 0 0 0 0 0 0 0 0 0 0 0 0 0 0 0 0 0 0 0 0 0 0 0 0 0 0 0 0 0
0 0 0 0 0 0 0 0 0 0 0 0 0 0 0 0 0 0 0 0 0 0 0 0 0 0 0 0 0 0 0 0 0 0 0 0 0 0 0 0 0 0 0 0 0 0 0 0 0
0 0 0 0 0 0 0 0 0 0 0 0 0 0 0 0 0 0 0 0 0 0 0 0 0 0 0 0 0 0 0 0 0 0 0 0 0 0 0 0 0 0 0 0 0 0 0 0 0
0 0 0 0 0 0 0 0 0 0 0 0 0 0 0 0 0 0 0 0 0 0 0 0 0 0 0 0 0 0 0 0 0 0 0 0 0 0 0 0 0 0 0 0 0 0 0 0 0
0 0 0 0 0 0 0 0 0 0 0 0 0 0 0 0 0 0 0 0 0 0 0 0 0 0 0 0 0 0 0 0 0 0 0 0 0 0 0 0 0 0 0 0 0 0 0 0 0
0 0 0 0 0 0 0 0 0 0 0 0 0 0 0 0 0 0 0 0 0 0 0 0 0 0 0 0 0 0 0 0 0 0 0 0 0 0 0 0 0 0 0 0 0 0 0 0 0
0 0 0 0 0 0 0 0 0 0 0 0 0 0 0 0 0 0 0 0 0 0 0 0 0 0 0 0 0 0 0 0 0 0 0 0 0 0 0 0 0 0 0 0 0 0 0 0 0
0 0 0 0 0 0 0 0 0 0 0 0 0 0 0 0 0 0 0 0 0 0 0 0 0 0 0 0 0 0 0 0 0 0 0 0 0 0 0 0 0 0 0 0 0 0 0 0 0
0 0 0 0 0 0 0 0 0 0 0 0 0 0 0 0 0 0 0 0 0 0 0 0 0 0 0 0 0 0 0 0 0 0 0 0 0 0 0 0 0 0 0 0 0 0 0 0 0
0 0 0 0 0 0 0 0 0 0 0 0 0 0 0 0 0 0 0 0 0 0 0 0 0 0 0 0 0 0 0 0 0 0 0 0 0 0 0 0 0 0 0 0 0 0 0 0 0
0 0 0 0 0 0 0 0 0 0 0 0 0 0 0 0 0 0 0 0 0 0 0 0 0 0 0 0 0 0 0 0 0 0 0 0 0 0 0 0 0 0 0 0 0 0 0 0 0
0 0 0 0 0 0 0 0 0 0 0 0 0 0 0 0 0 0 0 0 0 0 0 0 0 0 0 0 0 0 0 0 0 0 0 0 0 0 0 0 0 0 0 0 0 0 0 0 0
0 0 0 0 0 0 0 0 0 0 0 0 0 0 0 0 0 0 0 0 0 0 0 0 0 0 0 0 0 0 0 0 0 0 0 0 0 0 0 0 0 0 0 0 0 0 0 0 0
0 0 0 0 0 0 0 0 0 0 0 0 0 0 0 0 0 0 0 0 0 0 0 0 0 0 0 0 0 0 0 0 0 0 0 0 0 0 0 0 0 0 0 0 0 0 0 0 0
0 0 0 0 0 0 0 0 0 0 0 0 0 0 0 0 0 0 0 0 0 0 0 0 0 0 0 0 0 0 0 0 0 0 0 0 0 0 0 0 0 0 0 0 0 0 0 0 0
0 0 0 0 0 0 0 0 0 0 0 0 0 0 0 0 0 0 0 0 0 0 0 0 0 0 0 0 0 0 0 0 0 0 0 0 0 0 0 0 0 0 0 0 0 0 0 0 0
0 0 0 0 0 0 0 0 0 0 0 0 0 0 0 0 0 0 0 0 0 0 0 0 0 0 0 0 0 0 0 0 0 0 0 0 0 0 0 0 0 0 0 0 0 0 0 0 0
0 0 0 0 0 0 0 0 0 0 0 0 0 0 0 0 0 0 0 0 0 0 0 0 0 0 0 0 0 0 0 0 0 0 0 0 0 0 0 0 0 0 0 0 0 0 0 0 0
0 0 0 0 0 0 0 0 0 0 0 0 0 0 0 0 0 0 0 0 0 0 0 0 0 0 0 0 0 0 0 0 0 0 0 0 0 0 0 0 0 0 0 0 0 0 0 0 0
0 0 0 0 0 0 0 0 0 0 0 0 0 0 0 0 0 0 0 0 0 0 0 0 0 0 0 0 0 0 0 0 0 0 0 0 0 0 0 0 0 0 0 0 0 0 0 0 0
0 0 0 0 0 0 0 0 0 0 0 0 0 0 0 0 0 0 0 0 0 0 0 0 0 0 0 0 0 0 0 0 0 0 0 0 0 0 0 0 0 0 0 0 0 0 0 0 0
0 0 0 0 0 0 0 0 0 0 0 0 0 0 0 0 0 0 0 0 0 0 0 0 0 0 0 0 0 0 0 0 0 0 0 0 0 0 0 0 0 0 0 0 0 0 0 0 0
0 0 0 0 0 0 0 0 0 0 0 0 0 0 0 0 0 0 0 0 0 0 0 1 1 0 0 0 0 0 0 0 0 0 0 0 0 0 0 0 0 0 0 0 0 0 0 0 0
0 0 0 0 0 0 0 0 0 0 0 0 0 0 0 0 0 0 0 1 1 0 0 1 1 1 0 0 0 0 0 0 0 0 0 0 0 0 0 0 0 1 1 1 1 0 0 0 0
0 0 0 0 0 0 0 0 0 0 0 0 0 0 0 0 0 0 1 1 1 0 0 0 0 0 1 1 0 0 1 0 0 0 1 1 1 1 1 1 1 1 1 1 1 1 0 0 0
0 0 0 0 0 0 0 0 0 0 0 0 0 0 0 0 0 1 1 1 1 0 0 0 0 0 1 1 1 1 1 1 0 0 0 1 1 1 1 1 1 1 1 1 1 1 0 0 0
Wind_Speed
11 9 5 5 6 4 12 10 8 8 7 8 7 6 8 9 8 8 6 7 7 8 8 10 11 11 10 11 12 12 13 13 13 14 14 14 14 13 13 12 12 12 12 11 11 11 11 10 10
7 5 6 6 1 8 12 10 10 10 7 5 6 7 8 9 9 8 6 7 8 9 9 10 13 11 11 11 11 12 12 13 13 13 14 13 13 13 12 12 11 11 11 10 10 10 10 10 9
5 6 6 1 8 10 11 10 10 9 7 5 5 7 7 8 7 6 7 8 8 9 9 12 11 11 10 10 11 11 12 12 13 13 13 13 13 12 12 11 11 11 10 10 10 9 9 8 8
5 6 5 2 12 12 10 9 7 7 8 6 6 8 8 7 5 7 9 8 9 9 9 12 11 11 10 10 10 11 11 12 12 12 12 12 12 12 11 11 10 10 10 9 8 8 8 7 7
5 5 2 9 13 11 9 8 6 7 7 7 7 9 9 7 9 10 9 8 9 9 9 11 11 10 10 10 10 10 11 11 11 11 11 11 11 10 10 10 10 9 9 8 7 7 7 6 6
5 3 4 10 12 9 8 6 6 8 8 7 7 8 9 7 8 8 8 8 8 8 9 11 11 10 10 10 10 10 11 11 11 10 10 10 9 9 9 8 8 8 8 7 7 6 6 6 6
4 3 7 9 10 10 8 6 6 6 7 7 5 7 8 8 8 8 7 7 8 8 8 8 9 10 10 9 9 9 9 10 10 9 9 8 8 7 7 7 7 7 7 7 7 6 5 5 6
4 2 7 9 9 10 7 5 5 6 8 6 3 5 7 9 8 8 8 8 7 6 7 7 7 7 8 9 9 9 8 8 9 8 8 7 7 7 7 7 6 6 7 7 7 6 6 6 6
5 0 8 9 8 8 6 5 5 5 7 6 5 7 10 12 10 10 9 8 7 6 5 6 6 6 5 6 9 8 9 8 8 8 8 6 4 5 6 5 5 6 6 6 7 7 7 7 8
3 5 10 7 6 6 5 4 4 4 6 6 7 9 11 11 10 10 9 9 8 7 6 5 4 5 5 4 5 4 5 6 4 4 5 3 2 2 2 6 6 6 7 8 8 7 9 9 5
2 6 6 5 5 4 4 5 3 3 4 5 7 10 11 11 10 8 8 8 7 7 6 5 5 4 4 3 3 3 3 3 4 3 3 2 2 2 2 2 4 5 6 5 7 7 4 3 2
1 4 3 4 4 3 3 4 4 3 5 5 7 11 11 10 9 8 8 7 7 6 6 5 5 4 3 2 2 3 3 2 2 3 2 2 1 1 1 1 1 2 2 2 2 2 3 3 3
1 3 3 3 3 4 4 4 4 4 5 7 10 10 10 9 8 7 6 7 6 6 5 5 5 4 3 2 1 2 2 2 3 2 2 2 1 1 1 1 0 1 1 2 2 2 3 3 4
2 1 2 2 3 3 3 4 3 5 6 9 11 10 10 8 8 8 7 6 6 5 5 5 5 4 3 2 2 1 2 2 2 2 2 2 1 0 0 1 1 1 1 1 2 2 3 3 3
2 2 4 3 2 2 2 4 4 5 8 9 10 9 9 8 7 7 6 6 6 6 6 5 5 4 3 3 2 2 2 2 1 2 2 2 2 1 2 2 2 1 2 2 2 3 2 3 3
6 6 4 4 1 1 5 4 7 6 7 8 9 9 9 8 7 6 6 5 5 6 6 5 4 5 4 3 2 1 1 1 1 1 2 3 2 3 3 2 2 1 2 2 2 2 2 2 3
7 4 1 4 2 1 3 3 7 7 6 7 8 9 9 8 8 7 6 6 6 6 5 5 4 4 3 3 2 2 2 2 2 1 1 2 2 3 3 2 1 2 2 2 2 1 2 2 2
2 2 1 1 2 3 3 1 5 6 6 6 7 7 8 8 8 8 7 7 6 6 6 5 5 4 4 3 3 2 2 2 2 2 1 2 2 3 3 3 2 3 2 2 1 2 2 2 2
4 4 3 0 1 4 3 2 3 6 7 7 7 7 8 8 9 9 8 7 7 6 6 6 5 5 4 3 3 3 2 2 2 2 2 3 3 3 3 3 2 3 2 2 2 1 2 1 1
6 6 4 2 1 4 4 3 2 5 6 6 8 8 9 9 9 10 9 9 8 7 7 6 6 5 4 3 2 2 2 2 2 2 1 2 2 3 3 4 3 2 2 2 1 1 2 0 0
7 6 5 4 3 6 6 5 5 6 6 7 8 8 9 10 10 10 10 9 9 8 8 6 6 5 4 4 3 3 2 2 2 2 1 2 2 2 3 2 3 2 2 1 1 2 2 1 1
6 3 5 6 8 4 5 5 4 6 7 7 8 9 9 10 9 9 10 10 9 9 7 7 6 6 5 5 4 4 3 2 2 1 1 1 1 2 2 2 2 2 1 1 2 1 2 2 2
4 2 5 7 8 8 6 8 2 6 6 7 8 8 9 10 10 10 10 10 9 8 7 7 7 6 5 5 5 4 4 2 2 1 1 1 1 1 1 2 1 2 2 1 2 2 2 2 3
3 5 6 8 9 9 5 8 4 3 4 4 7 8 8 9 10 10 9 9 9 8 8 8 7 7 6 6 5 5 4 3 2 2 1 2 1 1 1 1 1 2 2 2 2 2 3 3 3
8 9 7 8 7 5 2 7 3 0 2 3 4 6 8 9 8 9 10 9 9 9 9 8 8 7 7 6 6 6 5 4 3 3 2 2 2 1 1 2 1 2 2 2 3 3 3 3 3
8 10 8 7 6 4 5 6 1 1 1 2 3 5 7 8 8 8 9 9 8 9 9 8 8 8 7 6 5 4 5 4 3 3 3 2 2 2 1 2 2 2 3 3 3 3 3 2 3
8 9 8 10 10 9 5 4 4 3 4 4 5 5 6 7 7 8 8 8 8 8 8 8 8 8 7 6 6 5 4 4 3 3 3 3 2 2 1 2 2 2 2 2 3 2 3 3 3
8 7 7 9 8 9 7 7 4 4 4 4 4 4 4 5 6 6 6 7 7 8 8 7 8 7 7 7 6 5 5 5 4 3 2 2 2 2 2 2 2 2 2 2 2 2 2 3 3
8 9 8 8 9 10 8 3 2 1 2 3 4 3 3 5 5 5 5 6 7 7 7 7 7 7 6 6 6 5 5 5 4 4 3 3 2 2 2 3 3 2 2 2 2 3 3 4 4
8 9 10 9 8 9 10 3 4 1 1 1 2 2 2 3 4 5 5 5 6 7 7 7 7 7 7 6 6 6 5 4 4 4 3 3 3 3 3 3 3 3 2 3 3 4 3 4 5
Wind_Direction
180 186 209 236 228 94 65 62 62 65 60 55 55 57 57 43 32 68 85 101 106 115 115 125 128 124 125 126 125 125 127 128 129 132 133 133 132 132 131 129 130 129 127 127 128 127 128 127 128
177 187 229 239 336 77 67 58 59 60 71 77 70 65 66 63 56 88 105 108 119 116 117 114 119 124 126 126 127 126 127 128 129 132 133 133 134 133 131 131 131 130 130 131 131 131 133 134 133
187 228 261 272 53 59 65 61 67 77 80 74 74 57 50 62 77 94 106 124 123 116 117 115 125 126 126 128 129 128 127 128 129 130 132 134 134 135 134 134 133 134 134 134 134 136 138 137 136
217 228 234 67 71 62 61 67 76 84 82 70 82 83 74 59 77 102 118 127 121 118 120 118 127 125 126 128 129 130 129 129 130 131 133 134 135 136 139 139 139 138 138 138 140 142 142 142 141
241 256 129 79 71 69 65 66 71 72 74 77 80 87 81 74 92 110 124 125 119 117 118 121 123 122 122 125 129 132 132 132 132 133 133 136 137 139 142 145 145 144 143 144 146 147 149 148 146
244 244 65 71 75 76 75 72 76 79 86 86 86 89 84 100 108 117 124 124 117 116 117 121 125 124 125 126 130 129 133 134 134 133 134 136 138 142 144 148 148 150 151 154 155 157 161 163 164
301 20 64 69 77 78 67 63 61 76 83 79 82 91 105 119 120 123 122 120 117 118 119 125 133 135 134 127 125 126 127 131 134 134 135 137 145 150 149 152 152 156 158 162 164 169 172 173 177
299 309 75 69 66 75 79 76 62 59 73 80 82 95 117 130 133 130 128 124 118 119 121 124 127 128 137 134 128 127 130 132 133 136 138 144 155 157 161 164 163 166 166 169 172 177 180 180 184
265 353 64 56 56 77 91 95 84 78 98 86 70 76 109 133 140 137 133 130 127 124 123 118 123 130 135 131 133 142 143 142 149 144 142 165 165 158 168 144 167 174 175 178 181 185 191 195 190
277 48 58 47 51 76 88 91 112 128 112 106 102 99 120 138 146 145 140 139 137 132 126 119 124 126 130 124 132 144 151 145 154 136 147 156 150 168 155 146 183 188 187 192 193 197 201 214 189
359 40 53 62 62 72 98 104 116 136 107 113 127 130 138 145 150 146 138 135 130 131 125 125 122 119 121 123 132 135 138 138 151 145 154 154 173 166 167 157 172 186 192 193 185 199 208 211 199
50 55 48 58 71 81 85 104 108 76 67 104 130 138 145 150 148 143 138 133 127 126 126 125 124 124 119 120 132 145 146 149 151 150 182 166 150 161 129 146 175 186 184 190 215 205 210 228 217
91 56 64 84 98 91 105 98 91 88 93 120 131 140 146 147 143 137 133 131 130 132 133 127 130 134 142 147 179 154 151 160 159 160 173 202 180 145 141 146 217 230 216 203 217 222 209 223 215
28 49 113 111 106 124 114 108 110 100 121 133 140 145 147 148 146 142 144 143 141 140 137 134 142 144 148 158 172 184 170 167 173 174 170 208 216 173 254 219 223 237 240 252 247 234 221 224 222
220 200 153 128 132 129 194 126 104 125 139 142 147 149 148 150 150 150 150 152 150 146 145 145 151 147 150 163 183 183 198 186 182 173 183 207 219 211 231 238 230 232 243 235 238 240 238 224 219
217 220 175 118 119 145 259 84 110 142 154 150 153 155 157 158 158 155 156 156 152 150 150 157 155 150 159 169 197 196 204 197 199 208 203 211 225 224 235 240 233 232 245 251 240 236 238 234 231
211 227 149 123 130 210 262 72 122 157 167 162 161 164 165 164 167 164 165 162 160 159 157 159 159 162 164 171 186 200 210 228 225 223 222 222 237 239 243 243 250 241 234 246 257 247 255 246 247
244 256 225 154 116 252 255 98 140 167 183 176 170 172 174 176 174 171 173 168 163 159 159 165 169 167 175 177 183 201 214 220 223 230 235 244 243 241 251 235 220 241 239 238 237 235 240 259 265
284 270 264 85 86 267 269 259 175 175 192 188 185 181 185 187 176 172 175 175 170 167 166 172 177 170 179 185 200 197 201 214 223 230 227 250 260 249 248 267 229 241 244 247 236 232 230 238 285
252 255 245 184 150 278 283 271 190 178 200 201 198 191 190 187 179 178 180 181 181 178 181 181 183 181 190 185 199 211 223 224 225 251 233 258 260 251 233 236 244 231 237 228 230 225 261 262 124
244 264 274 267 232 229 262 234 190 174 188 197 205 201 195 192 188 183 185 187 186 186 189 189 185 187 196 196 200 194 194 220 210 224 225 265 274 265 270 244 254 249 244 222 233 236 244 246 217
246 270 270 257 257 256 262 278 180 181 186 195 198 197 197 192 190 187 186 191 194 191 188 189 187 191 195 198 207 208 212 221 227 238 221 242 269 267 261 250 241 249 260 238 240 221 241 239 241
284 287 256 258 262 268 242 272 193 184 208 202 199 198 197 194 191 187 188 188 195 191 190 186 186 192 196 201 203 214 224 230 229 218 197 250 226 259 262 250 251 246 257 256 254 237 248 244 250
204 217 222 238 250 252 256 268 255 201 235 212 195 198 197 193 192 190 186 182 190 193 192 186 184 193 196 200 204 212 223 231 240 241 243 233 230 244 264 265 278 274 275 257 242 237 228 247 252
221 240 238 230 228 243 220 259 275 300 249 232 205 194 191 189 188 187 185 183 187 191 193 191 186 192 196 201 207 210 215 217 224 241 228 254 269 270 307 297 285 286 274 254 247 229 236 237 240
229 253 265 274 273 251 203 250 265 163 204 211 197 181 181 183 186 185 184 184 186 189 192 194 191 192 194 198 202 209 213 219 216 226 255 246 267 287 312 283 273 272 272 262 249 246 233 230 239
230 240 271 273 270 271 250 245 215 193 197 193 182 173 176 179 183 185 182 183 186 189 192 193 192 190 191 191 191 199 207 222 227 227 238 246 249 258 258 269 267 265 258 259 262 263 259 253 250
260 256 246 258 267 267 253 244 239 197 202 190 177 168 160 166 173 175 178 183 186 188 189 190 189 188 189 189 194 191 199 206 214 229 232 250 252 264 266 266 265 260 253 248 255 256 257 261 262
203 219 241 258 265 271 270 260 72 190 193 200 179 161 160 168 170 174 179 183 185 183 182 182 185 187 190 194 196 203 203 203 208 217 222 227 242 244 249 256 259 257 257 253 252 260 257 259 261
244 240 235 245 248 257 275 272 99 125 161 194 187 160 158 169 171 176 179 177 182 181 177 176 185 189 189 190 195 200 204 207 213 213 217 225 237 245 244 249 250 252 250 252 253 260 260 261 260